Regional Weather Roundup
Issued by NWS

Home | Current Version | Previous Version | Graphics & Text | Print | Product List | Glossary On
Versions: 1 2 3 4 5 6 7 8 9 10 11 12 13 14 15 16 17 18 19 20 21 22 23 24 25 26 27 28 29 30 31 32 33 34 35 36 37 38 39 40 41 42 43 44 45 46 47 48 49 50
241
ASUS43 KLMK 212302
RWRKY
KENTUCKY REGIONAL WEATHER ROUNDUP
NATIONAL WEATHER SERVICE LOUISVILLE KY
600 PM EST TUE NOV 21 2017

NOTE "FAIR" INDICATES FEW OR NO CLOUDS BELOW 12,000 FEET
WITH NO SIGNIFICANT WEATHER AND/OR OBSTRUCTIONS TO VISIBILITY.

KYZ001>023-026-027-061>063-070>075-220000-
WESTERN AND SOUTH CENTRAL KENTUCKY

CITY           SKY/WX    TMP DP  RH WIND       PRES   REMARKS
PADUCAH        CLEAR     52  38  58 NW6       30.03R
HENDERSON      CLOUDY    49  37  63 W9        30.01R
OWENSBORO      PTCLDY    49  36  61 SW6       30.00S
HOPKINSVILLE   CLOUDY    50  34  53 SW5       30.00S
BOWLING GREEN  PTCLDY    53  29  39 W6        30.01R
GLASGOW        NOT AVBL
$$

KYZ024-025-028>034-038-045-046-053-220000-
NORTH CENTRAL KENTUCKY

CITY           SKY/WX    TMP DP  RH WIND       PRES   REMARKS
LOUISVILLE/SDF MOCLDY    55  32  41 SW9       29.97R
LOUISVILLE/LOU MOCLDY    53  33  46 SW7       29.98R
FORT KNOX      MOCLDY    52  32  47 SW7       29.96S
$$

KYZ035>037-039>044-047>052-055>060-089>105-220000-
NORTHEAST KENTUCKY

CITY           SKY/WX    TMP DP  RH WIND       PRES   REMARKS
LEXINGTON      CLEAR     51  28  41 SW7       29.97S
COVINGTON      CLOUDY    52  32  46 SW8       29.94S
FRANKFORT      CLEAR     50  27  40 SW5       29.96R
$$

KYZ054-064>069-076>088-106>120-220000-
SOUTHEAST KENTUCKY

CITY           SKY/WX    TMP DP  RH WIND       PRES   REMARKS
JACKSON        CLEAR     58  44  60 SW5       29.96R
LONDON         CLOUDY    56  43  61 W3        29.97R
SOMERSET       NOT AVBL
MIDDLESBORO    CLEAR     57  48  72 S8        30.00R
MONTICELLO     PTCLDY    53  38  56 W15       30.00R
$$





USA.gov is the U.S. government's official web portal to all federal, state and local government web resources and services.